FW8431 Weather Reports


Display with metric or nautical units.
time (UTC)temp
F
wind
direction
speed
MPH
gust
MPH
rain 1hr
in
rain 24hr
in
rain mn
in
humidity
%
barometer
mb
20260831131600 64 0 0.0 0.0 0.00 0.00 0.00 98 1026.7
20260831130111 64 0 0.0 2.0 0.00 0.00 0.00 98 1026.6
20260831124559 63 0 0.0 2.0 0.00 0.00 0.00 98 1026.5
20260831123102 63 0 0.0 2.0 0.00 0.00 0.00 98 1026.5
20260831121610 62 0 0.0 0.0 0.00 0.00 0.00 98 1026.5
20260831114603 62 0 0.0 0.0 0.00 0.00 0.00 97 1026.2
20260831113108 62 0 0.0 0.0 0.00 0.00 0.00 98 1026.3
20260831111554 62 355 0.0 1.0 0.00 0.00 0.00 98 1026.1
20260831110058 62 0 0.0 0.0 0.00 0.00 0.00 97 1026.1
20260831104603 63 0 0.0 2.0 0.00 0.00 0.00 97 1025.9
20260831103102 63 0 0.0 0.0 0.00 0.00 0.00 97 1025.8
20260831101606 63 0 0.0 0.0 0.00 0.00 0.00 97 1025.6
20260831100059 63 0 0.0 0.0 0.00 0.00 0.00 97 1025.5
20260831094608 64 0 0.0 0.0 0.00 0.00 0.00 97 1025.5
20260831093142 64 0 0.0 0.0 0.00 0.00 0.00 97 1025.6
20260831091604 64 0 0.0 2.0 0.00 0.00 0.00 97 1025.5
20260831090057 64 0 0.0 2.0 0.00 0.00 0.00 97 1025.5
20260831084651 64 355 0.0 2.0 0.00 0.00 0.00 98 1025.3
20260831083110 64 0 0.0 0.0 0.00 0.00 0.00 97 1025.3
20260831081601 64 0 0.0 1.0 0.00 0.00 0.00 97 1025.4
20260831080124 64 0 0.0 0.0 0.00 0.00 0.00 97 1025.3
20260831074559 64 0 0.0 0.0 0.00 0.00 0.00 97 1025.5
20260831073055 65 0 0.0 1.0 0.00 0.00 0.00 97 1025.5
20260831071612 65 0 0.0 0.0 0.00 0.00 0.00 97 1025.5
20260831070100 65 0 0.0 0.0 0.00 0.00 0.00 97 1025.5
20260831064604 65 0 0.0 0.0 0.00 0.00 0.00 98 1025.3
20260831063111 64 0 0.0 0.0 0.00 0.00 0.00 98 1025.6
20260831061557 64 0 0.0 0.0 0.00 0.00 0.00 97 1025.7
20260831060105 64 0 0.0 0.0 0.00 0.00 0.00 96 1025.8
20260831054604 64 0 0.0 0.0 0.00 0.00 0.00 96 1025.7
20260831053105 65 0 0.0 0.0 0.00 0.00 0.00 97 1025.7
20260831051559 65 0 0.0 0.0 0.00 0.00 0.00 97 1025.8
20260831050110 65 0 0.0 0.0 0.00 0.00 0.00 96 1025.7
20260831044601 65 0 0.0 0.0 0.00 0.00 0.00 96 1025.7
20260831043100 65 0 0.0 0.0 0.00 0.00 0.00 96 1025.7
20260831041556 66 0 0.0 0.0 0.00 0.00 0.00 96 1025.7
20260831040057 66 0 0.0 0.0 0.00 0.00 0.00 95 1025.8
20260831034611 66 0 0.0 0.0 0.00 0.00 0.00 95 1025.8
20260831033102 66 0 0.0 0.0 0.00 0.00 0.00 95 1025.9
20260831031556 66 0 0.0 0.0 0.00 0.00 0.00 95 1026.1
20260831030100 66 0 0.0 0.0 0.00 0.00 0.00 94 1026.2
20260831024605 67 0 0.0 0.0 0.00 0.00 0.00 94 1026.1
20260831023105 67 0 0.0 0.0 0.00 0.00 0.00 93 1026.1
20260831021554 67 0 0.0 0.0 0.00 0.00 0.00 93 1025.9
20260831014605 67 0 0.0 1.0 0.00 0.00 0.00 92 1025.7
20260831013057 68 0 0.0 0.0 0.00 0.00 0.00 91 1025.6
20260831011602 68 355 0.0 1.0 0.00 0.00 0.00 91 1025.5
20260831010107 68 0 0.0 1.0 0.00 0.00 0.00 90 1025.3
20260831004602 69 0 0.0 0.0 0.00 0.00 0.00 89 1025.1
20260831003054 69 0 0.0 0.0 0.00 0.00 0.00 88 1025.0
20260831001618 70 0 0.0 0.0 0.00 0.00 0.00 87 1024.9
20260831000054 71 0 0.0 0.0 0.00 0.00 0.00 87 1025.0
20260830234602 72 0 0.0 3.0 0.00 0.00 0.00 86 1024.9
20260830233106 73 0 0.0 2.0 0.00 0.00 0.00 85 1024.7
20260830231559 73 0 0.0 1.0 0.00 0.00 0.00 84 1024.7
20260830230120 74 0 0.0 2.0 0.00 0.00 0.00 84 1024.6
20260830224601 76 0 0.0 1.0 0.00 0.00 0.00 82 1024.7
20260830223055 77 0 0.0 2.0 0.00 0.00 0.00 78 1024.7
20260830221556 78 0 0.0 1.0 0.00 0.00 0.00 79 1024.7
20260830220106 78 0 0.0 2.0 0.00 0.00 0.00 74 1024.7
20260830214555 78 0 1.0 4.0 0.00 0.00 0.00 72 1024.6
20260830213102 78 355 2.0 5.0 0.00 0.00 0.00 73 1024.7
20260830211558 78 0 1.0 4.0 0.00 0.00 0.00 72 1024.6
20260830210105 78 0 0.0 3.0 0.00 0.00 0.00 79 1024.6
20260830204557 79 0 0.0 3.0 0.00 0.00 0.00 74 1024.8
20260830203102 78 0 1.0 6.0 0.00 0.00 0.00 72 1024.7
20260830201604 79 144 2.0 5.0 0.00 0.00 0.00 72 1024.7
20260830200100 79 141 2.0 7.0 0.00 0.00 0.00 71 1024.9
20260830194601 78 111 1.0 4.0 0.00 0.00 0.00 71 1024.9
20260830193102 77 136 0.0 4.0 0.00 0.00 0.00 72 1025.1
20260830191606 77 38 2.0 5.0 0.00 0.00 0.00 70 1025.3
20260830190101 78 138 3.0 8.0 0.00 0.00 0.00 69 1025.7
20260830184606 80 161 4.0 9.0 0.00 0.00 0.00 68 1025.8
20260830183106 80 47 2.0 8.0 0.00 0.00 0.00 69 1026.1
20260830181559 79 0 1.0 11.0 0.00 0.00 0.00 71 1026.2
20260830180055 79 142 2.0 10.0 0.00 0.00 0.00 71 1026.3
20260830174615 79 161 3.0 9.0 0.00 0.00 0.00 74 1026.6
20260830173059 78 63 3.0 9.0 0.00 0.00 0.00 75 1026.9
20260830171606 79 137 3.0 9.0 0.00 0.00 0.00 75 1026.9
20260830170052 79 120 2.0 8.0 0.00 0.00 0.00 73 1027.0
20260830164558 78 157 2.0 8.0 0.00 0.00 0.00 75 1027.1
20260830163107 78 76 3.0 8.0 0.00 0.00 0.00 75 1027.3
20260830161606 78 145 3.0 6.0 0.00 0.00 0.00 69 1027.1
20260830160109 77 222 2.0 5.0 0.00 0.00 0.00 76 1027.2
20260830154556 78 0 2.0 6.0 0.00 0.00 0.00 72 1027.3
20260830153105 76 146 0.0 3.0 0.00 0.00 0.00 74 1027.3
20260830151601 76 146 4.0 7.0 0.00 0.00 0.00 79 1027.3
20260830150114 75 243 1.0 5.0 0.00 0.00 0.00 84 1027.4
20260830144603 73 259 2.0 4.0 0.00 0.00 0.00 85 1027.4
20260830143100 72 0 2.0 4.0 0.00 0.00 0.00 88 1027.4
20260830141559 71 292 1.0 4.0 0.00 0.00 0.00 91 1027.3
20260830140059 69 0 0.0 3.0 0.00 0.00 0.00 92 1027.3
20260830134604 68 0 0.0 2.0 0.00 0.00 0.00 94 1027.3
20260830133102 67 318 0.0 3.0 0.00 0.00 0.00 97 1027.3